When you browse on this site, cookies collect data to enhance your experience and personalize the content and advertising you see.
Visit our Privacy Policy to learn more. By continuing to use the site, you agree to this use of cookies and data.
  • en France
  • Liste des pays
  • À 7 jours
  • Température de l'eau
  • Carte météo
  • Widgets météo
  • user-avatar
    Se connecter

    Météo par heure à Limoges

    Ce jour, 16 Novembre, Samedi

    Heure Température Précipitation Vent Pression Humidité
    00:00 +2°C° 0 mm 2 m/s 724 mmHg 97%
    01:00 +2°C° 0.3 mm 2 m/s 723 mmHg 97%
    02:00 +2°C° 0.3 mm 3 m/s 723 mmHg 97%
    03:00 +2°C° 0.3 mm 3 m/s 723 mmHg 98%
    04:00 +2°C° 0.6 mm 3 m/s 723 mmHg 98%
    05:00 +2°C° 0.6 mm 3 m/s 723 mmHg 97%
    06:00 +2°C° 0 mm 3 m/s 724 mmHg 97%
    07:00 +2°C° 1.1 mm 3 m/s 724 mmHg 97%
    08:00 +3°C° 1.1 mm 3 m/s 724 mmHg 97%
    09:00 +3°C° 1.1 mm 3 m/s 724 mmHg 97%
    10:00 +3°C° 1.1 mm 3 m/s 724 mmHg 97%
    11:00 +3°C° 1.1 mm 3 m/s 724 mmHg 97%
    12:00 +3°C° 0 mm 3 m/s 724 mmHg 96%
    13:00 +4°C° 0.5 mm 2 m/s 724 mmHg 96%
    14:00 +5°C° 0.5 mm 2 m/s 724 mmHg 96%
    15:00 +5°C° 0.5 mm 2 m/s 724 mmHg 96%
    16:00 +6°C° 0.6 mm 1 m/s 724 mmHg 97%
    17:00 +5°C° 0.6 mm 1 m/s 725 mmHg 97%
    18:00 +5°C° 0.6 mm 1 m/s 725 mmHg 98%
    19:00 +5°C° 0.4 mm 1 m/s 725 mmHg 98%
    20:00 +5°C° 0.4 mm 1 m/s 726 mmHg 98%
    21:00 +4°C° 0.4 mm 0 m/s 726 mmHg 98%
    22:00 +4°C° 0 mm 0 m/s 726 mmHg 98%
    23:00 +3°C° 0 mm 0 m/s 726 mmHg 98%

    Demain, 17 Novembre, Dimanche

    Heure Température Précipitation Vent Pression Humidité
    00:00 +3°C° 0 mm 0 m/s 726 mmHg 97%
    01:00 +2°C° 0 mm 0 m/s 726 mmHg 98%
    02:00 +2°C° 0 mm 0 m/s 726 mmHg 98%
    03:00 +1°C° 0 mm 0 m/s 726 mmHg 98%
    04:00 +1°C° 0 mm 0 m/s 726 mmHg 98%
    05:00 +1°C° 0 mm 0 m/s 726 mmHg 98%
    06:00 +1°C° 0 mm 0 m/s 726 mmHg 98%
    07:00 +2°C° 0 mm 0 m/s 726 mmHg 96%
    08:00 +3°C° 0 mm 0 m/s 726 mmHg 95%
    09:00 +4°C° 0 mm 0 m/s 727 mmHg 94%
    10:00 +5°C° 0 mm 0 m/s 726 mmHg 89%
    11:00 +6°C° 0 mm 0 m/s 726 mmHg 84%
    12:00 +7°C° 0 mm 0 m/s 726 mmHg 79%
    13:00 +7°C° 0 mm 0 m/s 726 mmHg 80%
    14:00 +6°C° 0 mm 0 m/s 726 mmHg 80%
    15:00 +6°C° 0 mm 0 m/s 726 mmHg 81%
    16:00 +6°C° 0 mm 1 m/s 726 mmHg 84%
    17:00 +5°C° 0 mm 1 m/s 726 mmHg 87%
    18:00 +5°C° 0 mm 1 m/s 726 mmHg 90%
    19:00 +4°C° 0 mm 1 m/s 727 mmHg 92%
    20:00 +3°C° 0 mm 1 m/s 727 mmHg 94%
    21:00 +3°C° 0 mm 1 m/s 727 mmHg 95%
    22:00 +2°C° 0 mm 1 m/s 727 mmHg 95%
    23:00 +2°C° 0 mm 1 m/s 728 mmHg 95%

    Après-demain, 18 Novembre, Lundi

    Heure Température Précipitation Vent Pression Humidité
    00:00 +2°C° 0 mm 1 m/s 728 mmHg 95%
    01:00 +1°C° 0 mm 0 m/s 728 mmHg 95%
    02:00 +1°C° 0 mm 0 m/s 728 mmHg 95%
    03:00 +1°C° 0 mm 0 m/s 728 mmHg 95%
    04:00 +1°C° 0 mm 0 m/s 728 mmHg 94%
    05:00 +2°C° 0 mm 0 m/s 729 mmHg 94%
    06:00 +2°C° 0 mm 0 m/s 729 mmHg 93%
    07:00 +3°C° 0 mm 0 m/s 729 mmHg 90%
    08:00 +3°C° 0 mm 0 m/s 730 mmHg 88%
    09:00 +4°C° 0 mm 0 m/s 730 mmHg 86%
    10:00 +4°C° 0 mm 0 m/s 730 mmHg 83%
    11:00 +6°C° 0 mm 1 m/s 730 mmHg 80%
    12:00 +6°C° 0 mm 1 m/s 730 mmHg 77%
    13:00 +6°C° 0 mm 1 m/s 730 mmHg 78%
    14:00 +6°C° 0 mm 1 m/s 730 mmHg 79%
    15:00 +6°C° 0 mm 1 m/s 730 mmHg 81%
    16:00 +5°C° 0 mm 1 m/s 730 mmHg 84%
    17:00 +4°C° 0 mm 1 m/s 730 mmHg 88%
    18:00 +3°C° 0 mm 1 m/s 730 mmHg 92%
    19:00 +3°C° 0 mm 1 m/s 730 mmHg 93%
    20:00 +2°C° 0 mm 1 m/s 730 mmHg 95%
    21:00 +2°C° 0 mm 1 m/s 730 mmHg 96%
    22:00 +2°C° 0 mm 1 m/s 730 mmHg 97%
    23:00 +1°C° 0 mm 1 m/s 730 mmHg 97%

    19 Novembre, Mardi

    Heure Température Précipitation Vent Pression Humidité
    00:00 +1°C° 0 mm 1 m/s 730 mmHg 97%
    01:00 +1°C° 0 mm 1 m/s 730 mmHg 96%
    02:00 +1°C° 0 mm 1 m/s 730 mmHg 95%
    03:00 +2°C° 0 mm 1 m/s 730 mmHg 94%
    04:00 +2°C° 0 mm 1 m/s 730 mmHg 94%
    05:00 +1°C° 0 mm 1 m/s 730 mmHg 94%
    06:00 -1°C° 0 mm 2 m/s 730 mmHg 94%
    07:00 +1°C° 0 mm 2 m/s 730 mmHg 91%
    08:00 +2°C° 0 mm 2 m/s 730 mmHg 89%
    09:00 +2°C° 0 mm 2 m/s 730 mmHg 86%
    10:00 +4°C° 0 mm 2 m/s 730 mmHg 83%
    11:00 +4°C° 0 mm 3 m/s 730 mmHg 81%
    12:00 +5°C° 0 mm 3 m/s 729 mmHg 78%
    13:00 +6°C° 0 mm 2 m/s 729 mmHg 80%
    14:00 +6°C° 0 mm 2 m/s 729 mmHg 83%
    15:00 +5°C° 0 mm 2 m/s 728 mmHg 85%
    16:00 +4°C° 0 mm 2 m/s 728 mmHg 89%
    17:00 +3°C° 0 mm 2 m/s 728 mmHg 92%
    18:00 +2°C° 0 mm 2 m/s 728 mmHg 96%
    19:00 +2°C° 0 mm 2 m/s 728 mmHg 95%
    20:00 +2°C° 0 mm 2 m/s 728 mmHg 94%
    21:00 +2°C° 0 mm 2 m/s 728 mmHg 93%
    22:00 +2°C° 0 mm 2 m/s 728 mmHg 91%
    23:00 +2°C° 0 mm 2 m/s 728 mmHg 89%

    20 Novembre, Mercredi

    Heure Température Précipitation Vent Pression Humidité
    00:00 +1°C° 0 mm 2 m/s 727 mmHg 87%
    01:00 +2°C° 0 mm 2 m/s 727 mmHg 83%
    02:00 +3°C° 0 mm 2 m/s 727 mmHg 79%
    03:00 +3°C° 0 mm 2 m/s 726 mmHg 76%
    04:00 +3°C° 0 mm 2 m/s 726 mmHg 76%
    05:00 +3°C° 0 mm 2 m/s 726 mmHg 76%
    06:00 +3°C° 0 mm 2 m/s 726 mmHg 76%
    07:00 +4°C° 0 mm 2 m/s 726 mmHg 73%
    08:00 +4°C° 0 mm 3 m/s 726 mmHg 70%
    09:00 +5°C° 0 mm 3 m/s 726 mmHg 68%
    10:00 +7°C° 0 mm 3 m/s 726 mmHg 68%
    11:00 +9°C° 0 mm 3 m/s 725 mmHg 68%
    12:00 +10°C° 0 mm 4 m/s 725 mmHg 68%
    13:00 +10°C° 0 mm 3 m/s 724 mmHg 72%
    14:00 +10°C° 0 mm 2 m/s 724 mmHg 75%
    15:00 +10°C° 0 mm 2 m/s 723 mmHg 78%
    16:00 +9°C° 0.3 mm 2 m/s 723 mmHg 82%
    17:00 +8°C° 0.3 mm 2 m/s 723 mmHg 87%
    18:00 +7°C° 0.3 mm 3 m/s 722 mmHg 91%
    19:00 +7°C° 0.8 mm 2 m/s 722 mmHg 91%
    20:00 +7°C° 0.8 mm 2 m/s 722 mmHg 92%
    21:00 +7°C° 0.8 mm 2 m/s 722 mmHg 93%
    22:00 +7°C° 0.7 mm 2 m/s 722 mmHg 94%
    23:00 +7°C° 0.7 mm 2 m/s 722 mmHg 94%

    21 Novembre, Jeudi

    Heure Température Précipitation Vent Pression Humidité
    00:00 +7°C° 0.7 mm 2 m/s 722 mmHg 95%
    01:00 +7°C° 0.2 mm 2 m/s 722 mmHg 95%
    02:00 +7°C° 0.2 mm 2 m/s 721 mmHg 96%
    03:00 +7°C° 0.2 mm 3 m/s 721 mmHg 96%
    04:00 +7°C° 0 mm 3 m/s 721 mmHg 95%
    05:00 +7°C° 0 mm 3 m/s 720 mmHg 94%
    06:00 +7°C° 0 mm 3 m/s 720 mmHg 93%
    07:00 +7°C° 0.1 mm 3 m/s 720 mmHg 92%
    08:00 +8°C° 0.1 mm 3 m/s 721 mmHg 90%
    09:00 +8°C° 0.1 mm 3 m/s 721 mmHg 89%
    10:00 +8°C° 0.2 mm 4 m/s 721 mmHg 84%
    11:00 +9°C° 0.2 mm 5 m/s 720 mmHg 80%
    12:00 +10°C° 0.2 mm 6 m/s 720 mmHg 75%
    13:00 +10°C° 0 mm 5 m/s 720 mmHg 76%
    14:00 +10°C° 0 mm 4 m/s 720 mmHg 77%
    15:00 +10°C° 0 mm 2 m/s 721 mmHg 78%
    16:00 +9°C° 0 mm 2 m/s 721 mmHg 82%
    17:00 +8°C° 0 mm 2 m/s 720 mmHg 87%
    18:00 +8°C° 0 mm 1 m/s 720 mmHg 91%
    19:00 +7°C° 0 mm 2 m/s 720 mmHg 90%
    20:00 +8°C° 0 mm 2 m/s 720 mmHg 89%
    21:00 +9°C° 0 mm 3 m/s 720 mmHg 88%
    22:00 +9°C° 0 mm 3 m/s 719 mmHg 88%
    23:00 +9°C° 0 mm 3 m/s 719 mmHg 88%
    Voir plus